Powrót do katalogu

FENGYUN 1C DEB

LostPO
NORAD 37579·DEBRIS·🇨🇳 China

Wystrzelony May 10, 1999 z Taiyuan Satellite Launch Center

Loading…

Następne Przeloty (najbliższe 24 godziny)

TLE

NieaktualneSource: Space-Track

Epoka: May 11, 2024, 00:38 UTC

1 37579U 99025EKC 24132.02656383  .00015293  00000-0  71287-2 0  9998
2 37579  99.2530  62.0632 0033241 205.8836 154.0677 14.20218596809730

Śledź FENGYUN 1C DEB w czasie rzeczywistym z AllMySat

Download on the App Store